FW0051 Weather Reports


Display with metric or nautical units.
time (UTC)temp
F
wind
direction
speed
MPH
gust
MPH
rain 1hr
in
rain 24hr
in
rain mn
in
humidity
%
barometer
mb
20260905180016 62 101 4.0 6.0 0.00 0.00 0.00 86 1027.6
20260905173015 64 120 4.0 7.0 0.00 0.00 0.00 80 1027.3
20260905171515 64 128 5.0 8.0 0.00 0.00 0.00 79 1027.2
20260905170015 64 131 5.0 7.0 0.00 0.00 0.00 78 1027.2
20260905164514 65 149 6.0 9.0 0.00 0.00 0.00 78 1027.1
20260905163015 65 150 7.0 11.0 0.00 0.00 0.00 75 1027.1
20260905161515 66 143 9.0 11.0 0.00 0.00 0.00 72 1026.9
20260905160015 68 178 6.0 10.0 0.00 0.00 0.00 68 1026.9
20260905154515 67 196 6.0 10.0 0.00 0.00 0.00 71 1026.8
20260905151515 67 185 8.0 11.0 0.00 0.00 0.00 69 1026.7
20260905150016 67 198 7.0 13.0 0.00 0.00 0.00 69 1026.7
20260905144514 67 182 9.0 16.0 0.00 0.00 0.00 72 1026.5
20260905141515 68 187 7.0 14.0 0.00 0.00 0.00 74 1026.4
20260905140015 67 177 12.0 19.0 0.00 0.00 0.00 76 1026.4
20260905134514 67 166 11.0 19.0 0.00 0.00 0.00 77 1026.8
20260905130017 66 140 11.0 16.0 0.00 0.00 0.00 79 1026.8
20260905124514 66 141 13.0 19.0 0.00 0.00 0.00 79 1027.0
20260905121513 66 143 9.0 16.0 0.00 0.00 0.00 80 1027.1
20260905120018 66 144 12.0 19.0 0.00 0.00 0.00 81 1027.3
20260905114514 66 131 7.0 13.0 0.00 0.00 0.00 80 1027.2
20260905110014 66 144 8.0 13.0 0.00 0.00 0.00 82 1027.0
20260905104513 65 149 9.0 17.0 0.00 0.00 0.00 84 1027.0
20260905103014 66 169 7.0 15.0 0.00 0.00 0.00 79 1026.8
20260905100014 66 126 4.0 10.0 0.00 0.00 0.00 76 1026.7
20260905094513 67 72 2.0 7.0 0.00 0.00 0.00 70 1026.7
20260905093013 67 50 6.0 13.0 0.00 0.00 0.00 70 1026.7
20260905091513 65 253 1.0 3.0 0.00 0.00 0.00 65 1026.3
20260905090014 65 262 3.0 6.0 0.00 0.00 0.00 66 1026.4
20260905084513 64 253 3.0 7.0 0.00 0.00 0.00 69 1026.1
20260905083013 64 268 6.0 12.0 0.00 0.00 0.00 72 1026.1
20260905081513 64 248 5.0 9.0 0.00 0.00 0.00 71 1025.8
20260905080013 64 263 4.0 8.0 0.00 0.00 0.00 72 1025.7
20260905074513 64 259 3.0 6.0 0.00 0.00 0.00 70 1025.5
20260905073018 63 251 5.0 8.0 0.00 0.00 0.00 71 1025.6
20260905071518 61 316 5.0 12.0 0.00 0.00 0.00 78 1025.3
20260905070018 61 339 5.0 9.0 0.00 0.00 0.00 80 1025.3
20260905064518 60 317 3.0 7.0 0.00 0.00 0.00 81 1025.3
20260905063018 60 307 6.0 9.0 0.00 0.00 0.00 81 1025.3
20260905061517 60 262 2.0 6.0 0.00 0.00 0.00 79 1025.3
20260905060018 60 222 4.0 6.0 0.00 0.00 0.00 79 1025.2
20260905054517 60 215 4.0 6.0 0.00 0.00 0.00 81 1024.8
20260905051517 60 220 12.0 15.0 0.00 0.00 0.00 81 1024.9
20260905044517 60 200 10.0 14.0 0.00 0.00 0.00 81 1024.7
20260905043016 60 201 11.0 14.0 0.00 0.00 0.00 81 1024.6
20260905041517 60 201 8.0 10.0 0.00 0.00 0.00 80 1024.7
20260905040017 60 217 9.0 12.0 0.00 0.00 0.00 81 1024.8
20260905034516 59 221 12.0 15.0 0.00 0.00 0.00 83 1025.0
20260905033016 59 211 13.0 17.0 0.00 0.00 0.00 84 1025.1
20260905031516 59 207 15.0 19.0 0.00 0.00 0.00 85 1025.2
20260905030016 59 208 17.0 22.0 0.00 0.00 0.00 85 1025.2
20260905024516 59 213 20.0 26.0 0.00 0.00 0.00 86 1025.2
20260905023016 58 212 19.0 23.0 0.00 0.00 0.00 86 1025.2
20260905021516 59 205 19.0 25.0 0.00 0.00 0.00 83 1025.2
20260905020016 59 211 20.0 24.0 0.00 0.00 0.00 83 1025.3
20260905011515 60 210 19.0 23.0 0.00 0.00 0.00 80 1025.5
20260905010016 60 215 17.0 21.0 0.00 0.00 0.00 81 1025.6
20260905004515 60 214 14.0 17.0 0.00 0.00 0.00 80 1025.8
20260905003015 60 205 15.0 19.0 0.00 0.00 0.00 79 1025.9
20260905001515 60 206 15.0 19.0 0.00 0.00 0.00 80 1026.0
20260904234514 60 214 17.0 21.0 0.00 0.00 0.00 80 1026.3
20260904231514 61 212 17.0 21.0 0.00 0.00 0.00 80 1026.5
20260904230015 61 217 19.0 23.0 0.00 0.00 0.00 80 1026.6
20260904224514 60 222 17.0 20.0 0.00 0.00 0.00 81 1026.8
20260904223014 60 215 17.0 21.0 0.00 0.00 0.00 81 1026.8
20260904221513 61 217 19.0 24.0 0.00 0.00 0.00 80 1026.9
20260904220015 61 213 17.0 28.0 0.00 0.00 0.00 80 1027.0
20260904214513 61 204 14.0 20.0 0.00 0.00 0.00 80 1027.0
20260904213013 61 204 14.0 22.0 0.00 0.00 0.00 80 1027.0
20260904211514 60 198 14.0 22.0 0.00 0.00 0.00 80 1027.1
20260904210014 61 188 13.0 20.0 0.00 0.00 0.00 79 1027.2
20260904204513 61 184 12.0 23.0 0.00 0.00 0.00 79 1027.5
20260904203019 61 197 12.0 23.0 0.00 0.00 0.00 77 1027.6
20260904201519 61 197 14.0 18.0 0.00 0.00 0.00 76 1027.5
20260904200019 62 196 16.0 23.0 0.00 0.00 0.00 75 1027.5
20260904194519 62 201 17.0 25.0 0.00 0.00 0.00 75 1027.5
20260904193019 62 198 16.0 24.0 0.00 0.00 0.00 75 1027.6
20260904191519 61 183 13.0 21.0 0.00 0.00 0.00 77 1027.8
20260904190019 61 188 13.0 17.0 0.00 0.00 0.00 77 1027.6
20260904184518 61 196 11.0 20.0 0.00 0.00 0.00 73 1027.7
20260904181517 61 198 14.0 24.0 0.00 0.00 0.00 74 1027.7